GLOBALSTAR M072 [+]

Last updated on Fri Dec 29 2023 00:02:56 GMT+0000 (Coordinated Universal Time)

1 31574U 07020D 23362.50944767 -.00000100 00000+0 20305-4 0 9992 2 31574 52.0081 111.5034 0001171 128.6921 311.6264 12.62269574765209
UTC large
Height (km)
Speed (km/s)
/
Latitude / Longitude
Inclination (degrees)
Orbital Period (minutes)
Azimuth
Elevation
Range (km)
Doppler Factor

Next 0 passes for location: London (51.5072 / 0.1276)

Sorry there are no passes over London.
GLOBALSTAR M072 [+]